Location: Faustendorf
(49.2659°N, 12.7845°E)
Time: 19:48:37
(UTC+00:00)

Daily predictions for brighter satellites

Satellite Brightness Start Highest point End
(mag) Time Altitude Azimuth Time Altitude Azimuth Time Altitude Azimuth
Cosmos 1190 Rocket 4.3 19:27:44 10° NNW 19:32:53 57° ENE 19:38:01 10° SE
STARLINK-1135 4.3 19:30:28 10° WNW 19:34:25 44° SW 19:38:22 10° SE
STARLINK-1111 4.3 19:31:43 10° W 19:35:49 58° NNW 19:39:55 10° ENE
STARLINK-1077 3.8 19:32:38 10° WNW 19:36:48 76° NNE 19:40:57 10° ESE
Meteor 1-4 Rocket 3.7 19:34:08 10° SSE 19:36:58 24° E 19:39:48 10° NE
SPOT 5 4.3 19:34:13 10° ESE 19:38:29 27° ENE 19:42:55 10° N
STARLINK-1078 4.5 19:34:47 10° WNW 19:38:50 50° N 19:42:54 10° E
STARLINK-1141 4.4 19:35:30 10° WNW 19:39:24 41° SW 19:43:18 10° SE
Aureole 1 Rocket 3.3 19:36:41 10° NNW 19:40:30 60° ENE 19:45:28 10° SE
Cosmos 1782 Rocket 3.7 19:36:03 10° N 19:40:31 61° ENE 19:44:56 10° SSE
STARLINK-1073 4.4 19:36:43 10° W 19:40:50 57° NNW 19:44:55 10° ENE
NOSS 2-3 (C) 4.3 19:37:45 10° S 19:41:36 33° ESE 19:46:02 10° NE
STARLINK-1075 3.7 19:37:37 10° WNW 19:41:48 79° NNE 19:45:56 10° ESE
MetOp-B 4.2 19:37:43 10° SSE 19:43:02 69° ENE 19:48:22 10° N
STARLINK-1108 4.5 19:39:47 10° WNW 19:43:50 50° N 19:47:54 10° E
Cosmos 1140 Rocket 3.7 19:39:58 10° NNW 19:45:09 65° ENE 19:50:19 10° SE
STARLINK-1121 4.4 19:41:43 10° W 19:45:48 55° N 19:49:53 10° ENE
STARLINK-1093 3.7 19:42:37 10° WNW 19:46:47 83° NNE 19:50:56 10° ESE
Cosmos 614 Rocket 4.1 19:43:10 10° NNW 19:48:15 76° WSW 19:53:19 10° SSE
Okean 2 Rocket 4.1 19:44:43 10° N 19:48:46 33° ENE 19:52:46 10° SE
STARLINK-1071 4.4 19:44:47 10° WNW 19:48:50 51° N 19:52:54 10° E
Cosmos 1703 Rocket 3.5 19:44:38 10° S 19:48:57 76° E 19:53:18 10° NNE
STARLINK-1245 4.5 19:46:59 10° SSW 19:50:32 28° SE 19:54:07 10° E
STARLINK-1106 4.4 19:46:43 10° W 19:50:48 54° N 19:54:53 10° ENE
Cosmos 1371 Rocket 4.2 19:45:46 10° S 19:50:50 51° ESE 19:55:54 10° NNE
STARLINK-1074 3.6 19:47:35 10° WNW 19:51:46 87° NNE 19:55:55 10° ESE
Cosmos 1634 Rocket 4.2 19:46:28 10° N 19:52:45 63° ENE 19:59:00 10° SSE
STARLINK-1110 4.4 19:49:00 10° WNW 19:53:03 52° N 19:57:07 10° E
Cosmos 1743 3.2 19:49:34 10° NNW 19:53:21 59° W 19:57:06 10° S
STARLINK-1087 3.8 19:53:52 10° W 19:55:25 19° SW 19:56:50 11° SSE
STARLINK-1233 4.4 19:51:50 10° SSW 19:55:28 30° SE 19:59:08 10° ENE
STARLINK-1112 4.5 19:51:45 10° W 19:55:48 53° N 19:59:53 10° ENE
Cosmos 1544 3.1 19:52:13 10° N 19:55:52 70° ENE 19:59:29 10° SSE
Cosmos 2082 Rocket 3.2 19:51:39 10° NNW 19:56:56 36° NE 20:02:09 10° ESE
Landsat 7 4.0 19:52:43 10° SSE 19:57:24 62° ENE 20:02:08 10° N
SAR-Lupe-2 4.0 19:54:35 10° NNE 19:58:02 42° E 20:01:28 10° S
STARLINK-1124 4.4 19:54:46 10° WNW 19:58:51 53° N 20:02:55 10° E
Cosmos 1908 Rocket 4.4 19:55:08 10° NNW 19:59:26 51° W 20:03:45 10° S
ERBS 4.2 20:00:02 11° SE 20:00:05 11° SE 20:01:15 10° ESE
Cosmos 1954 Rocket 4.3 19:54:54 10° NNW 20:00:06 58° ENE 20:05:03 11° SE
STARLINK-1204 4.3 19:56:43 10° SSW 20:00:26 33° SE 20:04:10 10° ENE
STARLINK-1128 4.5 19:56:45 10° W 20:00:49 52° N 20:04:53 10° ENE
STARLINK-1088 3.6 19:57:33 10° WNW 20:01:43 85° SSW 20:05:46 11° ESE
STARLINK-1122 4.3 19:59:46 10° WNW 20:03:51 54° N 20:07:55 10° E
ERS-1 Rocket 3.5 20:00:29 10° SE 20:05:12 48° ENE 20:10:02 10° N
STARLINK-1238 4.2 20:01:35 10° SSW 20:05:21 35° SE 20:09:08 10° ENE
Cosmos 1833 Rocket 3.0 20:00:29 10° NNW 20:06:03 58° ENE 20:11:09 12° SE
STARLINK-1115 3.6 20:02:31 10° WNW 20:06:41 81° SSW 20:10:32 12° ESE
SeaSat 1 4.3 20:05:01 10° ENE 20:06:55 12° E 20:08:33 10° ESE
Cosmos 1975 2.9 20:03:52 10° NNW 20:07:57 80° W 20:11:59 10° S
STARLINK-1126 4.3 20:04:42 10° WNW 20:08:48 55° N 20:12:53 10° E
STARLINK-1201 4.1 20:06:29 10° SSW 20:10:19 38° SE 20:14:11 10° ENE
Spot 2 Rocket 3.5 20:05:32 10° SSE 20:10:36 86° W 20:15:40 10° NNW
Tsikada Rocket 4.1 20:04:24 10° SSW 20:10:37 81° W 20:16:50 10° N
STARLINK-1076 3.6 20:07:30 10° WNW 20:11:40 77° SSW 20:15:20 13° ESE
CZ-2C R/B 3.7 20:06:33 10° N 20:11:56 50° WNW 20:17:19 10° SW
Meteor 2-9 Rocket 4.2 20:06:49 10° NNW 20:12:18 82° W 20:17:38 10° S
Cosmos 676 Rocket 4.1 20:07:35 10° NNW 20:12:51 74° ENE 20:17:33 13° SSE
STARLINK-1082 4.2 20:09:45 10° WNW 20:13:51 57° NNE 20:17:56 10° E
STARLINK-1206 4.0 20:11:23 10° SSW 20:15:16 41° SE 20:19:11 10° ENE
GENESIS II 4.3 20:12:18 10° NW 20:16:22 72° NE 20:19:36 15° SE
STARLINK-1092 3.6 20:12:28 10° WNW 20:16:37 72° SSW 20:20:06 14° SE
Cosmos 389 Rocket 3.8 20:14:41 10° SW 20:17:57 40° WNW 20:21:18 10° N
STARLINK-1100 4.2 20:14:43 10° WNW 20:18:50 58° NNE 20:22:56 10° E
SL-4 R/B 2.7 20:16:26 10° NNW 20:19:22 30° NE 20:21:42 13° ESE
Cosmos 2056 Rocket 3.4 20:14:22 10° SSW 20:19:27 75° ESE 20:24:35 10° NNE
STARLINK-1205 3.9 20:16:18 10° SW 20:20:14 44° SE 20:24:11 10° ENE
Okean 1 4.3 20:16:20 10° SSW 20:20:16 48° WNW 20:24:13 10° N
STARLINK-1080 3.7 20:17:29 10° WNW 20:21:37 68° SSW 20:24:54 15° SE
STARLINK-1083 4.1 20:19:42 10° WNW 20:23:49 60° NNE 20:27:56 10° E
ISS -3.4 20:21:33 10° WNW 20:24:55 65° NNE 20:28:17 10° E
STARLINK-1218 3.8 20:21:13 10° SW 20:25:11 47° SE 20:29:10 10° ENE
STARLINK-1090 3.7 20:22:28 10° WNW 20:26:35 64° SSW 20:29:41 17° SE
Meteor 1-19 Rocket 4.5 20:22:21 10° SSW 20:27:57 76° WNW 20:33:45 10° N
STARLINK-1125 4.1 20:24:41 10° WNW 20:28:49 62° NNE 20:32:56 10° E
STARLINK-1254 3.7 20:26:09 10° SW 20:30:09 50° SE 20:34:10 10° ENE
STARLINK-67 4.0 20:29:24 10° WNW 20:31:09 26° N 20:32:53 10° NE
SL-8 R/B 3.6 20:26:41 10° WSW 20:31:29 76° S 20:36:18 10° E
STARLINK-1089 3.8 20:27:28 10° WNW 20:31:33 60° SSW 20:34:28 18° SE
CARTOSAT-1 3.6 20:28:14 16° SSE 20:31:42 73° ENE 20:36:02 10° N
Cosmos 2278 Rocket 2.3 20:26:55 10° S 20:32:28 58° ESE 20:38:02 10° NE
STARLINK-1109 4.0 20:29:40 10° WNW 20:33:47 64° NNE 20:37:55 10° E
STARLINK-1231 3.7 20:31:06 10° SW 20:35:08 54° SSE 20:39:11 10° ENE
STARLINK-1107 3.8 20:32:26 10° WNW 20:36:30 56° SSW 20:39:14 19° SE
Meteor 1-12 Rocket 4.2 20:32:44 10° NNW 20:38:25 90° ENE 20:43:14 15° S
STARLINK-1091 3.9 20:34:38 10° WNW 20:38:47 66° NNE 20:42:50 10° E
Cosmos 1437 Rocket 3.5 20:37:00 20° SE 20:39:01 33° E 20:42:28 10° NNE
STARLINK-1232 3.6 20:36:02 10° SW 20:40:05 58° SSE 20:44:10 10° ENE
Lacrosse 5 2.0 20:35:29 10° NW 20:40:33 74° NNE 20:44:51 14° ESE
NOSS 2-3 (E) 3.8 20:36:46 10° SW 20:41:07 86° NW 20:46:24 10° NE
STARLINK-1066 3.9 20:37:27 10° WNW 20:41:29 52° SSW 20:44:02 21° SE
Terra 2.0 20:38:31 18° SSE 20:42:00 62° ENE 20:46:44 10° N
Cosmos 1844 Rocket 4.5 20:38:12 10° WSW 20:43:22 35° NW 20:48:34 10° NNE
STARLINK-1072 3.9 20:39:38 10° WNW 20:43:48 69° NNE 20:47:37 12° ESE
STARLINK-1208 3.6 20:40:57 10° SW 20:45:02 61° SSE 20:49:09 10° ENE
STARLINK-1228 3.4 20:42:29 10° WSW 20:45:47 66° NNW 20:49:06 10° ENE
STARLINK-1081 4.0 20:42:26 10° WNW 20:46:27 49° SW 20:48:49 22° SSE
IGS 5A 4.4 20:44:11 11° S 20:48:01 42° W 20:52:01 10° NNW
STARLINK-1096 3.8 20:44:38 10° WNW 20:48:48 72° NNE 20:52:26 13° ESE
STARLINK-1234 3.3 20:46:17 10° WSW 20:49:24 63° NNW 20:52:30 10° ENE
STARLINK-1271 3.5 20:45:55 10° SW 20:50:01 66° SSE 20:54:09 10° ENE
Cosmos 1452 Rocket 3.7 20:45:55 13° S 20:50:27 52° ESE 20:55:36 10° NNE
STARLINK-1212 3.0 20:47:37 10° WSW 20:50:44 74° NNW 20:53:51 10° ENE
Cosmos 1300 Rocket 3.7 20:46:36 10° NNW 20:51:03 73° W 20:54:26 17° S
STARLINK-1209 3.4 20:48:03 10° W 20:51:10 61° NNW 20:54:18 10° ENE
STARLINK-1105 3.0 20:48:07 10° WSW 20:51:12 74° NNW 20:54:18 10° ENE
STARLINK-1070 4.1 20:47:25 10° WNW 20:51:24 45° SW 20:53:35 23° SSE
STARLINK-1247 3.1 20:49:00 10° WSW 20:52:07 73° NNW 20:55:14 10° ENE
Okean 3 3.8 20:48:13 10° SSW 20:52:30 69° W 20:56:49 10° N
STARLINK-1227 3.0 20:49:28 10° WSW 20:52:34 73° NNW 20:55:41 10° ENE
STARLINK-1226 3.1 20:50:20 10° WSW 20:53:26 72° NNW 20:56:33 10° ENE
Crew Dragon 0.1 20:51:20 10° WNW 20:53:28 69° NNE 20:54:14 34° E
STARLINK-1079 3.7 20:49:35 10° WNW 20:53:44 75° NNE 20:57:10 15° ESE
STARLINK-1215 3.1 20:51:16 10° WSW 20:54:23 71° NNW 20:57:30 10° ENE
STARLINK-1154 3.5 20:50:53 10° SW 20:55:00 70° SSE 20:59:08 10° ENE
STARLINK-1217 3.1 20:53:03 10° WSW 20:56:09 70° NNW 20:59:15 10° ENE
STARLINK-1069 4.2 20:52:25 10° WNW 20:56:20 42° SW 20:58:21 24° SSE
STARLINK-1229 3.2 20:53:58 10° WSW 20:57:04 69° NNW 21:00:11 10° ENE
Cosmos 1420 Rocket 3.9 20:51:58 10° SSW 20:57:11 82° ESE 21:02:24 10° NNE
STARLINK-1270 3.2 20:54:49 10° WSW 20:57:56 68° NNW 21:01:03 10° ENE
STARLINK-1116 3.7 20:54:35 10° WNW 20:58:45 78° NNE 21:01:58 16° ESE
Cosmos 2221 Rocket 4.0 20:54:56 10° SSW 20:59:24 64° WNW 21:03:56 10° N
STARLINK-1189 3.2 20:56:40 10° WSW 20:59:46 67° NNW 21:02:53 10° ENE
STARLINK-1197 3.5 20:55:50 10° WSW 20:59:58 74° SSE 21:04:07 10° ENE
STARLINK-1188 3.2 20:57:33 10° WSW 21:00:39 66° NNW 21:03:46 10° ENE
STARLINK-1103 4.5 20:56:46 10° WNW 21:00:48 50° N 21:04:51 10° E
NOSS 2-3 (D) 4.1 20:56:46 10° SW 21:01:06 68° NW 21:06:24 10° NE
STARLINK-1085 4.3 20:57:26 10° WNW 21:01:19 39° SW 21:03:10 25° SSE
STARLINK-1235 3.5 20:58:18 10° W 21:01:22 57° NNW 21:04:26 10° ENE
MTI 4.0 20:58:22 10° NNE 21:01:27 49° E 21:02:33 32° SSE
COSMOS 2406 4.2 20:56:09 10° NW 21:01:31 40° WSW 21:05:59 14° S
STARLINK-1187 3.4 20:58:42 10° W 21:01:46 61° NNW 21:04:50 10° ENE
Meteor 1-13 Rocket 4.2 20:56:54 11° S 21:02:16 90° E 21:07:59 10° NNE
STARLINK-1191 3.3 21:00:02 10° WSW 21:03:07 64° NNW 21:06:13 10° ENE
STARLINK-1221 3.3 21:00:55 10° WSW 21:04:00 63° NNW 21:07:05 10° ENE
Cosmos 371 Rocket 3.3 21:00:02 14° S 21:04:05 66° ESE 21:08:56 10° NNE
STARLINK-1222 3.3 21:01:48 10° W 21:04:53 63° NNW 21:07:59 10° ENE
USA 215 3.4 20:58:28 11° ESE 21:04:55 77° NNE 21:11:28 10° NW
STARLINK-1198 3.5 21:00:47 10° WSW 21:04:55 78° SSE 21:09:04 10° ENE
Meteor 1-23 Rocket 4.4 21:01:01 19° SSE 21:04:57 56° E 21:10:30 10° NNE
Resurs 01 Rocket 4.2 21:03:03 10° WSW 21:05:19 14° W 21:07:34 10° WNW
STARLINK-1101 4.5 21:01:45 10° WNW 21:05:48 51° N 21:09:51 10° E
STARLINK-1214 3.3 21:02:44 10° W 21:05:48 62° NNW 21:08:54 10° ENE
Meteor 2-4 Rocket 4.2 21:00:30 10° SSW 21:05:48 58° WNW 21:11:07 10° N
STARLINK-1086 4.4 21:02:27 10° WNW 21:06:16 37° SW 21:07:57 25° S
Cosmos 1461 4.3 21:06:45 20° ESE 21:06:55 20° ESE 21:10:07 10° ENE
Cosmos 1674 Rocket 3.5 21:04:49 21° S 21:07:38 72° E 21:12:01 10° NNE
Abrixas rocket 1.7 21:05:08 10° W 21:08:05 75° S 21:09:45 23° E
STARLINK-1094 3.6 21:04:33 10° WNW 21:08:43 85° NNE 21:11:32 20° ESE
STARLINK-1199 3.5 21:05:47 10° WSW 21:09:56 83° SSE 21:14:05 10° ENE
STARLINK-1102 4.4 21:06:45 10° WNW 21:10:49 52° N 21:14:53 10° E
STARLINK-1269 4.4 21:11:52 28° SSE 21:12:26 30° SE 21:16:05 10° ENE
STARLINK-1117 3.6 21:09:33 10° WNW 21:13:43 89° NE 21:16:19 22° ESE
STARLINK-1210 3.5 21:10:44 10° WSW 21:14:53 87° SSE 21:19:03 10° ENE
Cosmos 1378 Rocket 3.6 21:12:35 25° S 21:15:06 66° E 21:19:29 10° NNE
STARLINK-1111 4.4 21:11:44 10° WNW 21:15:48 52° N 21:19:52 10° E
SPOT 5 3.6 21:12:28 17° S 21:16:14 52° W 21:21:26 10° NNW
STARLINK-1200 4.3 21:16:39 30° SSE 21:17:25 32° SE 21:21:08 10° ENE
Nadezhda 4 Rocket 4.0 21:13:37 20° S 21:18:01 71° E 21:24:08 10° NNE
STARLINK-1078 3.5 21:14:31 10° WNW 21:18:40 87° SSW 21:21:05 24° ESE
STARLINK-1219 3.6 21:15:43 10° WSW 21:19:51 89° NW 21:24:02 10° ENE
STARLINK-1073 4.3 21:16:45 10° WNW 21:20:49 53° N 21:24:53 10° E
Cosmos 1733 4.2 21:17:30 10° N 21:21:03 34° ENE 21:22:28 26° ESE
NOSS 3-1 (A) 4.3 21:15:41 10° WSW 21:21:15 53° NW 21:27:50 10° NE
Cosmos 1741 Rocket 4.0 21:16:17 10° NNW 21:21:32 79° WSW 21:24:31 26° SSE
ATLAS CENTAUR R/B 3.8 21:21:29 10° NNW 21:22:10 11° N 21:22:52 10° NNE
STARLINK-1192 4.2 21:21:25 30° S 21:22:22 34° SE 21:26:08 10° ENE
STARLINK-1108 3.5 21:19:30 10° WNW 21:23:39 82° SSW 21:25:52 27° ESE
STARLINK-1211 3.6 21:20:41 10° WSW 21:24:50 85° NNW 21:29:00 10° ENE
Cosmos 1975 Rocket 4.1 21:23:46 25° SE 21:25:17 31° E 21:29:14 10° NNE
STARLINK-1121 4.3 21:21:42 10° WNW 21:25:47 55° N 21:29:52 10° E
JB-3 4.5 21:23:06 10° NNE 21:27:16 64° E 21:29:08 31° S
STARLINK-1244 4.1 21:26:11 31° S 21:27:18 37° SE 21:31:08 10° ENE
Cosmos 2297 4.0 21:25:27 24° S 21:28:32 48° ESE 21:34:01 10° NE
STARLINK-1071 3.5 21:24:29 10° WNW 21:28:38 78° SSW 21:30:39 29° SE
CENTAUR R/B 4.1 21:22:20 10° NW 21:29:34 43° NNE 21:37:39 10° E
STARLINK-1245 3.7 21:25:41 10° WSW 21:29:50 81° NNW 21:34:00 10° ENE
STARLINK-1106 4.2 21:26:42 10° WNW 21:30:47 56° N 21:34:52 10° E
STARLINK-1138 4.0 21:30:58 30° S 21:32:15 39° SE 21:36:09 10° ENE
BREEZE-M DEB (TANK) 4.0 21:19:31 10° WNW 21:32:48 61° SW 21:35:38 26° SE
STARLINK-1110 3.5 21:28:40 10° WNW 21:32:49 75° SSW 21:34:41 31° SE
STARLINK-1203 4.0 21:32:36 26° SSW 21:34:26 42° SE 21:38:25 10° ENE
STARLINK-1233 3.7 21:30:39 10° WSW 21:34:48 78° NNW 21:38:58 10° ENE
Cosmos 1850 Rocket 4.3 21:30:20 10° NNW 21:35:36 60° WSW 21:38:31 26° S
STARLINK-1112 4.2 21:31:42 10° WNW 21:35:48 57° NNE 21:39:54 10° E
ERBS 2.1 21:32:40 11° SW 21:35:49 80° SE 21:39:09 10° ENE
STARLINK-1143 3.9 21:35:45 30° SSW 21:37:13 42° SE 21:41:09 10° ENE
Cosmos 1242 Rocket 4.5 21:37:35 17° E 21:37:55 17° E 21:40:22 10° NE
STARLINK-1124 3.5 21:34:27 10° WNW 21:38:35 70° SSW 21:40:13 34° SE
STARLINK-1204 3.8 21:35:40 10° WSW 21:39:48 75° NNW 21:43:58 10° ENE
NOSS 8 (E) 4.1 21:40:14 55° SSE 21:40:29 57° SE 21:43:30 10° NE
STARLINK-1128 4.1 21:36:42 10° WNW 21:40:48 59° NNE 21:44:50 10° E
Cosmos 2082 Rocket 2.8 21:35:42 10° NW 21:41:12 48° WSW 21:44:18 24° S
STARLINK-1241 3.8 21:40:29 29° SSW 21:42:10 46° SE 21:46:08 10° ENE
Aureole 2 4.1 21:39:45 10° NNW 21:43:12 82° WSW 21:43:49 55° S
STARLINK-1122 3.6 21:39:26 10° WNW 21:43:33 65° SSW 21:45:00 37° SE
Cosmos 1470 4.2 21:40:37 10° NNE 21:43:57 26° ENE 21:45:16 22° ESE
Okean 1 Rocket 3.5 21:40:14 10° NNW 21:44:39 55° W 21:46:51 27° SSW
STARLINK-1238 3.8 21:40:37 10° WSW 21:44:45 72° NNW 21:48:55 10° ENE
SeaSat 1 2.4 21:40:14 10° NNE 21:45:12 74° ESE 21:48:18 23° SSW
STARLINK-1113 4.1 21:41:40 10° WNW 21:45:47 61° NNE 21:49:36 12° E
Cosmos 1110 Rocket 4.0 21:43:28 29° S 21:46:04 62° ESE 21:51:12 10° NNE
STARLINK-1239 3.7 21:45:15 27° SSW 21:47:07 49° SE 21:51:08 10° ENE
STARLINK-1126 3.6 21:44:23 10° WNW 21:48:29 61° SSW 21:49:45 40° SSE
Cosmos 1833 Rocket 4.1 21:45:00 10° NW 21:49:36 27° WSW 21:52:51 16° SSW
STARLINK-1201 3.9 21:45:38 10° WSW 21:49:46 68° NNW 21:53:55 10° ENE
NOSS 2-2 (C) 4.1 21:50:29 29° ESE 21:50:29 29° ESE 21:53:36 10° ENE
ATLAS 2AS CENTAUR R/B 4.4 21:48:30 16° SE 21:50:41 18° ESE 21:55:44 10° ENE
STARLINK-1119 4.0 21:46:39 10° WNW 21:50:47 63° NNE 21:54:23 13° E
Aureole 2 Rocket 2.0 21:51:13 62° S 21:51:37 74° ESE 21:54:43 10° NNE
STARLINK-1240 3.7 21:50:02 26° SSW 21:52:05 52° SSE 21:56:08 10° ENE
Cosmos 1805 3.3 21:48:11 10° NNW 21:52:06 71° W 21:53:26 39° S
SL-4 R/B 3.0 21:49:50 10° WNW 21:52:22 22° WSW 21:52:33 22° WSW
EO 1 Del DPAF 3.2 21:48:48 10° NNE 21:52:34 67° ESE 21:53:37 44° SSE
Cosmos 304 Rocket 3.7 21:50:10 26° SSW 21:52:55 88° ESE 21:57:45 10° NNE
BREEZE-M DEB (TANK) 4.2 21:38:09 10° WNW 21:53:15 80° SSW 21:56:23 20° ESE
STARLINK-1082 3.7 21:49:25 10° WNW 21:53:29 57° SSW 21:54:34 42° SSE
STARLINK-1206 4.0 21:50:38 10° W 21:54:45 66° NNW 21:58:54 10° ENE
Okean 2 3.4 21:53:51 40° SSE 21:55:10 67° E 21:59:18 10° NNE
STARLINK-1114 3.9 21:51:39 10° WNW 21:55:47 65° NNE 21:59:11 15° E
Cosmos 1092 Rocket 3.9 21:52:19 26° S 21:55:59 85° E 22:02:10 10° N
NOSS 3-2 (A) 4.2 21:48:41 10° NW 21:55:59 70° NE 22:02:51 16° SE
Cosmos 332 Rocket 4.3 21:52:44 14° SW 21:56:53 60° WNW 22:01:45 10° NNE
STARLINK-1216 3.6 21:54:48 24° SW 21:57:03 56° SSE 22:01:07 10° ENE
Cosmos 1455 Rocket 3.2 21:53:15 10° N 21:57:36 62° ENE 21:59:07 37° SE
STARLINK-1100 3.8 21:54:24 10° WNW 21:58:27 53° SSW 21:59:21 43° SSE
Cosmos 2369 Rocket 3.2 21:57:13 25° SE 21:58:45 29° ESE 22:03:32 10° NE
STARLINK-1205 4.0 21:55:38 10° W 21:59:45 64° NNW 22:03:53 10° ENE
STARLINK-1130 (DARKSAT) 3.9 21:56:37 10° WNW 22:00:45 68° NNE 22:03:56 16° E
ISS -3.1 21:58:26 10° WNW 22:01:21 41° SW 22:01:21 41° SW
STARLINK-1237 3.5 21:59:34 23° SW 22:02:01 60° SSE 22:06:07 10° ENE
USA 238 DEB 4.0 21:56:09 10° NW 22:03:19 73° NE 22:08:58 19° SE
STARLINK-1083 3.8 21:59:23 10° WNW 22:03:24 50° SW 22:04:07 44° S
USA 238 4.0 21:56:14 10° NW 22:03:25 73° NE 22:09:06 19° SE
STARLINK-67 4.5 22:01:37 10° WNW 22:02:31 20° NW 22:02:31 20° NW
Cosmos 1378 3.4 22:02:30 35° SW 22:03:52 61° WNW 22:07:34 10° N
STARLINK-1218 4.1 22:00:37 10° W 22:04:44 62° NNW 22:08:51 10° ENE
STARLINK-1084 3.8 22:01:36 10° WNW 22:05:45 71° NNE 22:08:43 18° E
Cosmos 1842 3.3 22:05:25 47° SSE 22:06:22 66° E 22:10:16 10° NNE
STARLINK-1202 3.5 22:04:21 21° SW 22:07:00 64° SSE 22:11:07 10° ENE
STARLINK-1125 3.9 22:04:23 10° WNW 22:08:22 47° SW 22:08:54 43° S
Cosmos 1943 Rocket 2.5 22:07:36 33° SSE 22:09:33 46° ESE 22:14:51 10° NE
Cosmos 1025 Rocket 4.1 22:08:42 27° ESE 22:09:40 30° E 22:13:25 10° NNE
STARLINK-1254 4.2 22:05:38 10° W 22:09:44 60° NNW 22:13:51 10° ENE
Cosmos 1331 Rocket 3.9 22:07:06 29° SSW 22:09:49 86° ESE 22:15:02 10° NNE
STARLINK-1098 3.7 22:06:36 10° WNW 22:10:45 74° NNE 22:13:31 20° ESE
STARLINK-1109 4.0 22:09:22 10° WNW 22:13:19 43° SW 22:13:40 42° SSW
SL-8 R/B 3.6 22:09:10 10° W 22:13:59 76° S 22:17:56 15° ESE
Cosmos 1302 Rocket 4.3 22:12:14 35° SSE 22:14:08 53° ESE 22:19:18 10° NNE
STARLINK-1231 4.2 22:10:39 10° W 22:14:45 58° NNW 22:18:51 10° ENE
STARLINK-1123 3.7 22:11:34 10° WNW 22:15:44 77° NNE 22:18:17 22° ESE
Meteor 2-13 Rocket 4.4 22:12:50 31° S 22:15:59 77° E 22:22:11 10° NNE
Cosmos 2278 Rocket 4.0 22:11:53 10° WSW 22:16:54 31° NW 22:21:56 10° NNE
STARLINK-1246 3.5 22:13:54 18° SW 22:16:56 73° SSE 22:21:04 10° ENE
STARLINK-1091 4.1 22:14:22 10° WNW 22:18:16 40° SW 22:18:27 40° SSW
STARLINK-1232 4.3 22:15:39 10° W 22:19:44 56° NNW 22:23:50 10° ENE
Terra 3.9 22:17:24 12° SW 22:20:10 19° W 22:23:30 10° NW
STARLINK-1097 3.6 22:16:33 10° WNW 22:20:43 80° NNE 22:23:04 25° ESE
ALOS 2 2.6 22:19:22 40° SSE 22:20:53 72° ENE 22:25:16 10° N
ATLAS 5 CENTAUR R/B 3.4 22:23:07 15° E 22:23:07 15° E 22:23:38 10° ENE
STARLINK-1224 3.4 22:18:40 16° WSW 22:21:54 77° SSE 22:26:03 10° ENE
STARLINK-1228 4.3 22:19:32 10° WNW 22:22:42 41° N 22:25:54 10° ENE
Lacrosse 5 2.9 22:18:52 10° WNW 22:23:12 29° SW 22:24:01 28° SSW
STARLINK-1072 4.2 22:19:23 10° WNW 22:23:14 38° SW 22:23:15 38° SW
STARLINK-1208 4.3 22:20:38 10° W 22:24:43 55° N 22:28:48 10° ENE
S3M 4.2 22:18:42 10° N 22:24:47 60° ENE 22:27:55 29° SE
Cosmos 1536 Rocket 4.3 22:23:49 33° ESE 22:24:50 38° E 22:28:51 10° NNE
Thor Agena Rocket 3.9 22:19:41 10° N 22:24:57 65° WNW 22:28:05 24° SW
Spot 4 4.2 22:23:24 34° SSW 22:25:17 56° W 22:30:06 10° NNW
Cosmos 1655 Rocket 4.4 22:22:34 29° SSE 22:25:24 50° E 22:31:23 10° NNE
STARLINK-1234 4.3 22:22:33 10° WNW 22:25:31 39° N 22:28:29 10° ENE
STARLINK-1099 3.6 22:21:30 10° WNW 22:25:41 84° NNE 22:27:49 28° ESE
Cosmos 292 Rocket 4.5 22:25:11 34° SE 22:26:17 39° ESE 22:30:48 10° NE
STARLINK-1212 4.3 22:23:52 10° WNW 22:26:49 39° N 22:29:46 10° ENE
STARLINK-1225 3.5 22:23:26 14° WSW 22:26:54 81° SSE 22:31:03 10° ENE
STARLINK-1105 4.3 22:24:20 10° WNW 22:27:17 39° N 22:30:14 10° ENE
STARLINK-1209 4.3 22:24:28 10° WNW 22:27:28 40° N 22:30:29 10° ENE
STARLINK-1096 4.4 22:24:25 10° WNW 22:28:02 35° SW 22:28:02 35° SW
STARLINK-1247 4.3 22:25:15 10° WNW 22:28:13 39° N 22:31:11 10° ENE
STARLINK-1227 4.3 22:25:43 10° WNW 22:28:40 39° N 22:31:37 10° ENE
STARLINK-1226 4.3 22:26:34 10° WNW 22:29:31 39° N 22:32:30 10° ENE
STARLINK-1271 4.4 22:25:40 10° W 22:29:44 54° N 22:33:49 10° ENE
STARLINK-1215 4.3 22:27:31 10° WNW 22:30:29 39° N 22:33:27 10° ENE
STARLINK-1104 3.5 22:26:30 10° WNW 22:30:40 88° NNE 22:32:37 31° ESE
SL-4 R/B 2.5 22:31:54 28° NW 22:31:54 28° NW 22:33:12 10° NNW
STARLINK-1230 3.5 22:28:12 13° WSW 22:31:52 85° SSE 22:36:01 10° ENE
STARLINK-1217 4.3 22:29:17 10° WNW 22:32:15 39° N 22:35:13 10° ENE
BREEZE-M DEB (TANK) 3.0 22:21:31 10° WSW 22:32:23 79° SSE 22:35:37 10° E
STARLINK-1229 4.3 22:30:12 10° WNW 22:33:10 39° N 22:36:09 10° ENE
Cosmos 1544 Rocket 3.5 22:29:02 10° NNW 22:33:23 79° W 22:34:36 46° S
STARLINK-1270 4.3 22:31:04 10° WNW 22:34:03 39° N 22:37:01 10° ENE
STARLINK-1154 4.4 22:30:40 10° W 22:34:44 53° N 22:38:49 10° ENE
EXPRESS MD2 4.4 22:30:38 10° WSW 22:35:07 76° SSE 22:44:52 10° ENE
Cosmos 1726 3.1 22:32:06 10° N 22:35:34 36° ENE 22:36:25 31° ESE
STARLINK-1144 3.5 22:31:30 10° WNW 22:35:39 88° SW 22:37:24 34° ESE
STARLINK-1189 4.3 22:32:55 10° WNW 22:35:53 39° N 22:38:51 10° ENE
STARLINK-1188 4.3 22:33:48 10° WNW 22:36:47 39° N 22:39:45 10° ENE
STARLINK-1243 3.5 22:32:58 12° WSW 22:36:51 89° ESE 22:41:00 10° ENE
STARLINK-1235 4.3 22:34:33 10° WNW 22:37:30 39° N 22:40:27 10° ENE
STARLINK-1187 4.3 22:34:57 10° WNW 22:37:54 39° N 22:40:51 10° ENE
SL-27 R/B 2.3 22:35:32 10° NNW 22:39:10 88° WSW 22:39:37 67° SSE
STARLINK-1191 4.3 22:36:18 10° WNW 22:39:15 39° N 22:42:12 10° ENE
STARLINK-1197 4.4 22:35:40 10° W 22:39:44 52° N 22:43:48 10° ENE
STARLINK-1221 4.3 22:37:11 10° WNW 22:40:07 39° N 22:43:04 10° ENE
STARLINK-1103 3.5 22:36:28 10° WNW 22:40:38 84° SSW 22:42:11 37° ESE
STARLINK-1222 4.3 22:38:03 10° WNW 22:41:01 39° N 22:43:58 10° ENE
STARLINK-1236 3.5 22:37:44 10° WSW 22:41:50 86° NNW 22:45:59 10° ENE
STARLINK-1214 4.3 22:38:59 10° WNW 22:41:56 39° N 22:44:53 10° ENE
Cosmos 1553 Rocket 4.0 22:36:10 10° NNW 22:42:32 80° W 22:45:31 33° S
Cosmos 1953 2.8 22:38:48 10° N 22:42:45 52° ENE 22:43:45 40° SE
Abrixas rocket 4.4 22:40:37 10° W 22:41:15 15° W 22:41:15 15° W
Cosmos 1340 Rocket 3.7 22:40:28 10° N 22:44:19 41° ENE 22:45:32 32° ESE
STARLINK-1198 4.5 22:40:39 10° W 22:44:42 51° N 22:48:46 10° ENE
Cosmos 1461 3.4 22:43:04 22° WSW 22:45:36 58° NW 22:49:58 10° NNE
STARLINK-1101 3.5 22:41:27 10° WNW 22:45:36 80° SSW 22:46:57 41° SE
Cosmos 1271 Rocket 2.6 22:46:32 58° SSE 22:47:11 75° E 22:51:04 10° NNE
USA 215 3.7 22:45:48 31° S 22:48:14 43° SW 22:54:26 10° WNW
Cosmos 2026 Rocket 4.5 22:45:53 24° SW 22:49:39 56° WNW 22:55:54 10° N
STARLINK-1102 3.5 22:46:27 10° WNW 22:50:35 75° SSW 22:51:45 45° SE
Aureole 3 Rocket 4.1 22:45:42 10° NNW 22:50:47 63° W 22:54:05 31° SSW
Cosmos 1758 3.4 22:47:11 10° NNW 22:51:12 67° W 22:52:04 50° SSW
STARLINK-1269 3.7 22:47:37 10° WSW 22:51:46 79° NNW 22:55:56 10° ENE
COSMOS 2487 4.2 22:49:28 10° N 22:52:27 26° ENE 22:53:49 20° E
Cosmos 1656 Rocket 4.4 22:52:30 31° SE 22:54:12 39° ESE 22:59:23 10° NE
Cosmos 1707 2.6 22:53:56 58° S 22:54:39 82° E 22:58:35 10° NNE
STARLINK-1111 3.5 22:51:25 10° WNW 22:55:33 71° SSW 22:56:31 49° SE
STARLINK-1200 3.7 22:52:37 10° WSW 22:56:47 76° NNW 23:00:56 10° ENE
NOSS 2-2 (D) 3.5 22:57:14 35° WSW 22:58:38 65° NW 23:02:47 10° NE
YAOGAN 11 4.0 22:58:51 44° SSE 23:00:12 81° ENE 23:04:35 10° NNW
STARLINK-1073 3.5 22:56:25 10° WNW 23:00:33 67° SSW 23:01:19 53° SSE
Meteor 1-16 Rocket 4.3 22:55:15 10° N 23:00:53 69° ENE 23:03:23 33° SSE
NOSS 3-2 (C) 4.0 22:53:29 10° NW 23:00:57 86° SW 23:07:07 20° SE
STARLINK-1192 3.8 22:57:37 10° WSW 23:01:46 73° NNW 23:05:55 10° ENE
Cosmos 2292 Rocket 3.7 23:02:09 43° SSE 23:03:14 58° E 23:06:53 10° NNE
STARLINK-1121 3.5 23:01:23 10° WNW 23:05:29 63° SSW 23:06:04 55° SSE
STARLINK-1244 3.8 23:02:35 10° WSW 23:06:44 70° NNW 23:10:53 10° ENE
STARLINK-1106 3.6 23:06:22 10° WNW 23:10:27 59° SSW 23:10:51 55° S
STARLINK-1138 3.9 23:07:36 10° W 23:11:44 67° NNW 23:15:52 10° ENE
NOSS 3-4 (A) 4.0 23:10:07 33° SSE 23:11:59 41° ESE 23:17:50 10° NE
NOSS 3-4 (C) 4.0 23:10:13 32° SSE 23:12:05 41° ESE 23:17:56 10° NE
Meteor 2-10 3.9 23:07:02 10° NNW 23:12:08 74° W 23:13:53 41° S
ERBS 4.4 23:09:30 10° WNW 23:12:25 27° NNW 23:15:21 10° NE
Cosmos 1242 Rocket 3.6 23:11:36 33° WSW 23:12:29 38° WNW 23:15:58 10° N
SL-4 R/B 3.9 23:13:39 21° ESE 23:13:39 21° ESE 23:16:33 10° E
Aureole 3 2.9 23:09:42 10° N 23:13:31 71° ENE 23:13:55 62° SE
STARLINK-1203 4.0 23:09:58 10° W 23:14:09 66° NNW 23:18:21 10° ENE
PSLV R/B 4.4 23:10:24 10° NNE 23:14:49 42° E 23:16:05 34° SE
STARLINK-1112 3.6 23:11:22 10° WNW 23:15:25 55° SSW 23:15:39 54° SSW
STARLINK-1143 4.0 23:12:35 10° W 23:16:43 65° NNW 23:20:51 10° ENE
ATLAS 3B R/B 3.1 23:10:21 10° NW 23:17:04 62° NE 23:23:59 10° ESE
SL-16 R/B 4.3 23:12:52 10° ESE 23:17:50 26° NE 23:22:49 10° N
Cosmos 2266 Rocket 3.9 23:16:09 34° S 23:19:00 87° E 23:25:07 10° N
Cosmos 1674 3.2 23:18:32 40° ESE 23:19:07 44° E 23:22:43 10° NNE
Cosmos 1470 4.0 23:16:39 10° NNW 23:19:58 27° W 23:20:37 26° WSW
STARLINK-1128 3.7 23:16:22 10° WNW 23:20:24 51° SSW 23:20:25 51° SSW
ATLAS CENTAUR R/B 3.0 23:20:47 22° ESE 23:20:55 22° ESE 23:24:11 10° ENE
CENTAUR R/B 3.1 23:13:03 10° NW 23:21:03 79° SW 23:27:41 19° SSE
STARLINK-1241 4.0 23:17:35 10° W 23:21:42 62° NNW 23:25:50 10° ENE
SeaSat 1 4.5 23:18:22 10° N 23:22:18 24° NW 23:26:12 10° W
Cosmos 1503 Rocket 4.0 23:17:32 10° NNW 23:22:49 73° WSW 23:24:51 38° S
STARLINK-1113 3.8 23:21:21 10° WNW 23:25:12 47° SW 23:25:12 47° SW
STARLINK-1239 4.1 23:22:35 10° W 23:26:42 60° NNW 23:30:49 10° ENE
STARLINK-1119 4.0 23:26:21 10° WNW 23:29:59 43° SW 23:29:59 43° SW
BREEZE-M DEB 4.3 23:26:41 10° W 23:30:43 89° N 23:47:02 10° E
STARLINK-1240 4.2 23:27:36 10° W 23:31:42 59° NNW 23:35:49 10° ENE
BREEZE-M DEB (TANK) 3.0 23:28:40 10° W 23:32:05 63° SSW 23:37:41 10° ESE
Cosmos 1867 3.6 23:27:08 10° NW 23:32:38 85° NE 23:36:08 23° SE
Cosmos 883 Rocket 4.5 23:28:09 10° NNW 23:34:17 71° W 23:37:08 33° S
Helios 1A 3.9 23:33:57 32° WSW 23:34:42 34° W 23:38:34 10° NNW
STARLINK-1114 4.2 23:31:21 10° WNW 23:34:47 39° WSW 23:34:47 39° WSW
Cosmos 968 Rocket 4.1 23:31:46 10° NW 23:36:37 41° WSW 23:38:01 34° SW
STARLINK-1216 4.2 23:32:36 10° W 23:36:42 57° NNW 23:40:48 10° ENE
Cosmos 1354 Rocket 4.1 23:32:28 10° NNW 23:37:42 62° WSW 23:39:37 38° S
Cosmos 1892 Rocket 4.3 23:37:41 32° SE 23:39:09 45° E 23:43:21 10° NNE
Cosmos 1908 3.1 23:35:25 10° N 23:39:16 89° W 23:40:02 56° S
Cosmos 2227 Rocket 4.4 23:34:42 10° NNW 23:39:16 24° NE 23:43:48 10° E
STARLINK-1130 (DARKSAT) 4.3 23:36:21 10° WNW 23:39:32 36° WSW 23:39:32 36° WSW
ATLAS 2AS CENTAUR R/B 3.1 23:35:53 28° SSW 23:40:28 70° SE 23:48:21 10° NE
STARLINK-1237 4.3 23:37:36 10° W 23:41:42 56° N 23:45:47 10° ENE
Meteor 1-24 Rocket 4.4 23:39:53 26° SE 23:42:20 42° E 23:47:23 10° NNE
Cosmos 2369 Rocket 2.7 23:38:58 22° SW 23:42:29 55° NW 23:48:03 10° NNE
RESURS DK-1 4.1 23:43:24 19° ESE 23:44:12 20° ESE 23:47:17 10° ENE
STARLINK-1218 4.5 23:40:39 10° WNW 23:44:42 51° N 23:48:46 10° E
CZ-2D R/B 4.0 23:41:55 10° NE 23:45:47 20° E 23:48:55 13° SE
STARLINK-1202 4.3 23:42:37 10° W 23:46:42 54° N 23:50:47 10° ENE
Cosmos 1025 Rocket 4.4 23:45:35 22° WSW 23:47:15 29° WNW 23:51:01 10° N
Cosmos 1726 Rocket 3.4 23:43:53 10° N 23:48:14 86° E 23:49:40 42° SSE
Cosmos 2315 Rocket 4.0 23:43:03 10° NNW 23:49:12 68° W 23:52:12 32° SSW
STARLINK-1254 4.5 23:45:39 10° WNW 23:49:43 52° N 23:53:47 10° E
Helios 1B rocket 2.4 23:47:29 10° NNE 23:51:38 82° WNW 23:52:51 45° SSW
Cosmos 1943 Rocket 3.4 23:49:04 14° WSW 23:53:25 36° NW 23:58:35 10° NNE
STARLINK-1231 4.4 23:50:40 10° WNW 23:54:44 53° N 23:58:48 10° E
KORONAS-FOTON 3.7 23:55:12 51° SSW 23:56:03 75° W 23:59:53 10° N
